COSMOS 970 DEB, 64973

Orbit data source: Space-Track

COSMOS 970 DEB, 64973 is space debris in LEO originally from a launch on Wed, 21 Dec 1977 UTC launched from the Tyuratam Missile And Space Complex (TTMTR). Debris objects in space refer to the collection of defunct objects orbiting the Earth. Examples of debris include non-operational satellites, rocket bodies, and fragments generated from explosions, collisions, or faulty payload assembly.

Loading next visibility...
Identifier
64973, 1977-121CJ
Orbit
LEO
Country
Flag of CISCIS
Related business
Manufacturer
Unknown
Mission
Spacecraft
Bus & Motor
Unknown
Mass
Unknown
Launch date (UTC)
1977-12-21 (48 years ago)
Launch vehicle
Unknown
Launch site
Tyuratam Missile And Space Complex (TTMTR)
Object type
Payload
Rocket body
Debris
Shape & HBR
Unknown shape, 0.1 m
Radar Cross Section
Small (<0.1 m²)

Expand to show TLE details & history
Last TLE update: 2 days ago

TLE from 2 days ago
0 COSMOS 970 DEB
1 64973U 77121CJ  26170.23875488  .00000329  00000-0  38906-3 0  9991
2 64973  66.8553   7.3194 0220887  18.9518 341.9608 13.69238738582575
Epoch: 2026-06-19T05:43Z
TLE epoch observation values (Epoch: 2026-06-19T05:43:48.421Z)
Latitude
0.00001°
Longitude
13.89706°
Altitude
849.693 km
Speed
7.506 km/s
True Right ascension
00h 29m 16s
True Declination
0° 00' 00"
Sunlit
Object was in daylight at epoch
Visualization orbit readout
Latitude
Unknown
Longitude
Unknown
Altitude
Unknown
Speed
Unknown
Apparent Right ascension
Unknown
Apparent Declination
Unknown
Sunlit
N/A
Visualization observer readout
Local Sidereal Time
08:32:44
Azimuth
Unknown
Elevation
Unknown
Doppler factor
Unknown
Orbital elements
Apogee altitude
1,163.697 km
Perigee altitude
837.719 km
Semi-major axis
7,378.845 km
Eccentricity
0.02209
Inclination
66.8553°
RAAN
7.3194°
Arg. of periapsis
18.9518°
True anomaly
341.15589°
Mean anomaly
341.9608°
Eccentric anomaly
341.56049°
Mean motion
3.42421 °/min
Orbital period
105.13 mins
BSTAR
0.00038906
Loading maneuver chart data...
Computing Atmospheric mass density...
Loading historical data...
Loading historical data...
Loading historical data...
Loading historical data...
Loading historical data...
Loading historical data...
Loading historical data...

Documentation

Showing up to 5 results
|